Location: Home
(42.5358°N, 72.7383°W)
Time: 08:46:18
(UTC-05:00)

deb Explorer IX - Pass Details

Date: 04 December 2021
Orbit: 544 x 1082 km, 38.8° (Epoch: 19 January)

Event Time Altitude Azimuth Distance (km) Brightness Sun altitude
Rises 11:52:57 0° 261° (W) 2,905 ? 25.1°
Reaches altitude 10° 11:55:25 10° 256° (WSW) 1,933 ? 25.1°
Maximum altitude 11:59:40 52° 180° (S) 704 ? 25.0°
Drops below altitude 10° 12:03:39 10° 104° (ESE) 1,807 ? 24.9°
Sets 12:05:53 0° 99° (E) 2,695 ? 24.9°
